TimeMDT,TemperatureF,Dew PointF,Humidity,Sea Level PressureIn,VisibilityMPH,Wind Direction,Wind SpeedMPH,Gust SpeedMPH,PrecipitationIn,Events,Conditions,WindDirDegrees,DateUTC
12:56 AM,55.9,19.9,25,29.62,-9999.0,NW,17.3,-,N/A,,Unknown,320,2013-04-06 06:56:00
1:56 AM,53.1,28.0,38,29.66,-9999.0,North,15.0,-,N/A,,Unknown,350,2013-04-06 07:56:00
2:56 AM,50.0,30.9,48,29.68,-9999.0,NNW,16.1,-,N/A,,Unknown,340,2013-04-06 08:56:00
3:56 AM,46.9,32.0,56,29.71,-9999.0,NW,13.8,-,N/A,,Unknown,320,2013-04-06 09:56:00
4:56 AM,44.1,28.9,55,29.73,-9999.0,North,13.8,-,N/A,,Unknown,10,2013-04-06 10:56:00
5:56 AM,42.1,27.0,55,29.77,-9999.0,North,11.5,-,N/A,,Unknown,10,2013-04-06 11:56:00
6:56 AM,44.1,27.0,51,29.80,-9999.0,North,10.4,-,N/A,,Unknown,350,2013-04-06 12:56:00
7:56 AM,51.1,27.0,39,29.81,-9999.0,North,10.4,-,N/A,,Unknown,360,2013-04-06 13:56:00
8:56 AM,57.0,24.1,28,29.83,-9999.0,NNE,21.9,28.8,N/A,,Unknown,20,2013-04-06 14:56:00
9:56 AM,60.1,25.0,26,29.81,-9999.0,NNE,23.0,29.9,N/A,,Unknown,30,2013-04-06 15:56:00
10:56 AM,63.0,24.1,23,29.82,-9999.0,NNE,17.3,24.2,N/A,,Unknown,30,2013-04-06 16:56:00
11:56 AM,64.0,23.0,21,29.79,-9999.0,NE,18.4,27.6,N/A,,Unknown,50,2013-04-06 17:56:00
12:56 PM,64.0,21.9,20,29.81,-9999.0,East,8.1,-,N/A,,Unknown,80,2013-04-06 18:56:00
1:56 PM,66.9,21.9,18,29.79,-9999.0,NNE,5.8,-,N/A,,Unknown,30,2013-04-06 19:56:00
2:56 PM,68.0,21.9,17,29.77,-9999.0,East,5.8,-,N/A,,Unknown,90,2013-04-06 20:56:00
3:56 PM,68.0,21.9,17,29.76,-9999.0,Calm,Calm,-,N/A,,Unknown,0,2013-04-06 21:56:00
4:56 PM,68.0,21.9,17,29.76,-9999.0,South,5.8,-,N/A,,Unknown,180,2013-04-06 22:56:00
5:56 PM,66.9,23.0,19,29.76,-9999.0,South,15.0,-,N/A,,Unknown,180,2013-04-06 23:56:00
6:56 PM,62.1,26.1,25,29.78,-9999.0,South,10.4,-,N/A,,Unknown,170,2013-04-07 00:56:00
7:56 PM,57.0,28.0,33,29.77,-9999.0,SSE,10.4,-,N/A,,Unknown,160,2013-04-07 01:56:00
8:56 PM,52.0,28.0,40,29.77,-9999.0,SSE,11.5,-,N/A,,Unknown,160,2013-04-07 02:56:00
9:56 PM,51.1,28.0,41,29.77,-9999.0,South,11.5,-,N/A,,Unknown,170,2013-04-07 03:56:00
10:56 PM,46.9,28.0,48,29.75,-9999.0,South,10.4,-,N/A,,Unknown,180,2013-04-07 04:56:00
11:56 PM,48.0,28.0,46,29.75,-9999.0,South,9.2,-,N/A,,Unknown,190,2013-04-07 05:56:00